Regional Weather Roundup
Issued by NWS

Home | Current Version | Previous Version | Graphics & Text | Print | Product List | Glossary On
Versions: 1 2 3 4 5 6 7 8 9 10 11 12 13 14 15 16 17 18 19 20 21 22 23 24 25 26 27 28 29 30 31 32 33 34 35 36 37 38 39 40 41 42 43 44 45 46 47 48 49 50
000
ASUS43 KTOP 131659
RWRKS

WEATHER ROUNDUP FOR KANSAS
NATIONAL WEATHER SERVICE GOODLAND KS
1100 AM CST WED DEC 13 2017

NOTE:  "FAIR" INDICATES FEW OR NO CLOUDS BELOW 12,000 FEET WITH NO
SIGNIFICANT WEATHER AND/OR OBSTRUCTIONS TO VISIBILITY.

KSZ001>006-013>018-027>032-041>047-131800-
NORTHWEST KANSAS

CITY           SKY/WX    TMP DP  RH WIND       PRES   REMARKS
GOODLAND       SUNNY     51  15  23 NW25G36   30.08R
HAYS           SUNNY     59  19  21 NW28G39   29.98S
HILL CITY      SUNNY     57  21  24 NW25G43   30.00S
RUSSELL        SUNNY     58  19  22 NW29G40   29.95R
$$

KSZ061>065-074>080-084>089-131800-
SOUTHWEST KANSAS

CITY           SKY/WX    TMP DP  RH WIND       PRES   REMARKS
DODGE CITY     MOSUNNY   53  15  22 NW13G25   30.04R
GARDEN CITY    CLOUDY    55  16  21 N23G32    30.05R
GREAT BEND     SUNNY     58  20  22 NW23G30   29.96S
LIBERAL        SUNNY     59  16  18 N18       30.06S
$$

KSZ066>073-081>083-090>101-131800-
SOUTHEAST KANSAS

CITY           SKY/WX    TMP DP  RH WIND       PRES   REMARKS
CHANUTE        MOSUNNY   51  27  39 W8        29.86R
COFFEYVILLE    SUNNY     52  27  38 W3        29.88F
HUTCHINSON     CLOUDY    58  21  24 N17G28    29.93R
MEDICINE LODGE   N/A     58  20  22 N22G33    29.96R
NEWTON         CLOUDY    55  22  27 NW24G30   29.91R
PARSONS        SUNNY     52  28  39 NW7       29.89S
WICHITA INTL   CLOUDY    58  22  24 NW17G28   29.92R
WICHITA JABRA  CLOUDY    54  22  28 NW20G28   29.92R
WICHITA MCCONL CLOUDY    55  20  25 NW18      29.91R
WINFIELD       SUNNY     59  25  27 NW14G28   29.93S
$$

KSZ007>012-019>026-033>040-048>060-102>105-131800-
NORTHEAST KANSAS

CITY           SKY/WX    TMP DP  RH WIND       PRES   REMARKS
CONCORDIA      SUNNY     57  22  25 NW28G40   29.89R
EMPORIA        CLOUDY    57  23  26 NW24G36   29.85R
LAWRENCE       SUNNY     57  27  31 W15       29.77S
MANHATTAN      SUNNY     60  25  26 N14G26    29.85R
OLATHE IND     SUNNY     55  25  31 NW20G33   29.77S
OLATHE EXE     SUNNY     53  25  33 NW16G26   29.75S
SALINA         SUNNY     61  23  23 NW25G32   29.91S
TOPEKA BILLARD SUNNY     58  26  29 NW15G21   29.80R
TOPEKA FORBES  SUNNY     60  24  25 NW23G32   29.78F
$$




USA.gov is the U.S. government's official web portal to all federal, state and local government web resources and services.